FREGAT DEB, 46524

Orbit data source: Space-Track

FREGAT DEB, 46524 is space debris in LEO originally from a launch on Mon, 18 Jul 2011 UTC launched from the Tyuratam Missile And Space Complex (TTMTR). Debris objects in space refer to the collection of defunct objects orbiting the Earth. Examples of debris include non-operational satellites, rocket bodies, and fragments generated from explosions, collisions, or faulty payload assembly.

Loading next visibility...
Identifier
46524, 2011-037MC
Orbit
LEO
Country
Flag of CISCIS
Related business
Manufacturer
Lavochkin
Mission
Spacecraft
Bus & Motor
Unknown
Mass
Unknown
Launch date (UTC)
2011-07-18 (15 years ago)
Launch vehicle
Unknown
Launch site
Tyuratam Missile And Space Complex (TTMTR)
Object type
Payload
Rocket body
Debris
Shape & HBR
Unknown shape, 0.1 m
Radar Cross Section
Medium (>0.1 m² and <1 m²)

Expand to show TLE details & history
Last TLE update: 18 hours ago

TLE from 18 hours ago
0 FREGAT DEB
1 46524U 11037MC  26254.93759118  .00000820  00000-0  22684-2 0  9999
2 46524  51.6235  78.6009 1827010 141.9862 232.5184 10.61366049234476
Epoch: 2026-09-11T22:30Z
TLE epoch observation values (Epoch: 2026-09-11T22:30:07.877Z)
Latitude
-0.00006°
Longitude
110.11425°
Altitude
3,496.775 km
Speed
5.931 km/s
True Right ascension
05h 14m 24s
True Declination
0° 00' 00"
Sunlit
Object was in daylight at epoch
Visualization orbit readout
Latitude
Unknown
Longitude
Unknown
Altitude
Unknown
Speed
Unknown
Apparent Right ascension
Unknown
Apparent Declination
Unknown
Sunlit
N/A
Visualization observer readout
Local Sidereal Time
09:13:14
Azimuth
Unknown
Elevation
Unknown
Doppler factor
Unknown
Orbital elements
Apogee altitude
3,966.633 km
Perigee altitude
770.559 km
Semi-major axis
8,746.733 km
Eccentricity
0.1827
Inclination
51.6235°
RAAN
78.6009°
Arg. of periapsis
141.9862°
True anomaly
218.09022°
Mean anomaly
232.5184°
Eccentric anomaly
225.1031°
Mean motion
2.65323 °/min
Orbital period
135.68 mins
BSTAR
0.0022684
Loading maneuver chart data...
Computing Atmospheric mass density...
Loading historical data...
Loading historical data...
Loading historical data...
Loading historical data...
Loading historical data...
Loading historical data...
Loading historical data...

Documentation

Showing up to 5 results
|